Location: Marion Hill
(40.7303°N, 80.2959°W)
Time: 09:36:52
(UTC+00:00)

Cosmos 1812 Rocket - Pass Details

Date: 29 October 2020
Orbit: 605 x 633 km, 82.5° (Epoch: 26 November)

Event Time Altitude Azimuth Distance (km) Brightness Sun altitude
Rises 23:47:32 0° 179° (S) 2,890 7.0 -17.0°
Reaches altitude 10° 23:49:47 10° 176° (S) 1,984 6.1 -17.4°
Maximum altitude 23:54:07 65° 95° (E) 682 3.4 -18.3°
Drops below altitude 10° 23:58:28 10° 14° (NNE) 1,982 6.0 -19.1°
Sets 00:00:42 0° 11° (NNE) 2,887 6.9 -19.5°
